Regional Weather Roundup
Issued by NWS Little Rock, AR

Home | Current Version | Previous Version | Text Only | Print | Product List | Glossary On
Versions: 1 2 3 4 5 6 7 8 9 10 11 12 13 14 15 16 17 18 19 20 21 22 23 24 25 26 27 28 29 30 31
000
ASUS44 KLZK 280505
RWRLZK

WEATHER ROUNDUP FOR ARKANSAS
NATIONAL WEATHER SERVICE LITTLE ROCK AR
1200 AM CDT SUN MAY 28 2017

NOTE: "FAIR" INDICATES FEW OR NO CLOUDS BELOW 12,000 FEET WITH NO
SIGNIFICANT WEATHER AND/OR OBSTRUCTIONS TO VISIBILITY.

ARZ001-003-010-029-280600-
NORTHWEST ARKANSAS

CITY           SKY/WX    TMP DP  RH WIND       PRES   REMARKS
FAYETTEVILLE   CLOUDY    64  64 100 SE3       29.85F
FORT SMITH     CLOUDY    83  72  69 NW5       29.83R THUNDER HAZE
HARRISON       LGT RAIN  66  61  84 W13G24    29.87S
BENTONVILLE    CLOUDY    66  63  88 CALM      29.84R
ROGERS         CLOUDY    66  63  90 CALM      29.85F
SILOAM SPGS    CLOUDY    66  61  82 W8        29.83R
HIGHFILL       CLOUDY    67  64  90 S10       29.84R
$$

ARZ004-005-016-280600-
NORTH CENTRAL ARKANSAS

CITY           SKY/WX    TMP DP  RH WIND       PRES   REMARKS
BATESVILLE     CLOUDY    64  63  94 NE6       29.96R THUNDER
FLIPPIN        CLOUDY    64  57  77 S5        29.91R THUNDER
MTN HOME       LGT RAIN  63  62  97 SW9G22    29.91F
$$

ARZ040-041-280600-
WEST CENTRAL ARKANSAS

CITY           SKY/WX    TMP DP  RH WIND       PRES   REMARKS
MENA           NOT AVBL
MOUNT IDA      CLOUDY    82  75  79 CALM      29.79S HX  89
$$

ARZ009-017-025-026-028-280600-
NORTHEAST ARKANSAS

CITY           SKY/WX    TMP DP  RH WIND       PRES   REMARKS
JONESBORO      HVY RAIN  64  61  90 E13       29.90F
NEWPORT        TSTM      64  62  93 VRB5      29.99R
WALNUT RIDGE   CLOUDY    63  59  88 E9        29.92F THUNDER
BLYTHEVILLE    LGT RAIN  65  64  97 E14       29.93F
$$

ARZ022-023-033-042-044-280600-
CENTRAL ARKANSAS

CITY           SKY/WX    TMP DP  RH WIND       PRES   REMARKS
LITTLE ROCK    CLOUDY    78  76  93 SE7       29.82S FOG
N LITTLE ROCK    N/A     79  75  87 CALM      29.84R
JACKSONVILLE   MOCLDY    79  77  91 N3        29.84R
CONWAY           N/A     81  75  83 CALM      29.83R HX  86
SEARCY         CLOUDY    69  64  84 N20G26    29.94R
HOT SPRINGS    CLOUDY    81  77  88 S3        29.82R HX  88
RUSSELLVILLE   CLOUDY    80  74  81 E6        29.79F HX  85
CLINTON        CLOUDY    72  63  73 VRB3G17   29.91R THUNDER
$$

ARZ036-280600-
EAST ARKANSAS

CITY           SKY/WX    TMP DP  RH WIND       PRES   REMARKS
WEST MEMPHIS   LGT RAIN  65  65 100 NE16G28   29.90F
$$

ARZ050-053-066-070-073-280600-
SOUTHWEST ARKANSAS

CITY           SKY/WX    TMP DP  RH WIND       PRES   REMARKS
ARKADELPHIA    CLOUDY    81  76  84 SW8       29.83R HX  87
CAMDEN         CLOUDY    79  72  78 S3        29.84R
TEXARKANA      MOCLDY    79  75  87 S12       29.82R
EL DORADO      CLOUDY    78  73  84 S9        29.85R
DE QUEEN       CLOUDY    80  78  94 SE3       29.78S FOG     HX  88
$$

ARZ056-057-069-280600-
SOUTHEAST ARKANSAS

CITY           SKY/WX    TMP DP  RH WIND       PRES   REMARKS
PINE BLUFF     CLOUDY    78  75  90 S5        29.84R
STUTTGART      CLOUDY    81  66  61 S5        29.84S
MONTICELLO     MOCLDY    78  74  87 SW5       29.85R

$$






USA.gov is the U.S. government's official web portal to all federal, state and local government web resources and services.